CAPE
4 4 1 1 2 2 0 2 0 1 1 1 1 1 1 2 1 0 0 0 0 0 0 0 0 0 0 0 0 0 0 0 0 0 0 0 0 0 0 0 0 0 0 0 0
3 4 1 1 1 1 1 1 1 1 1 1 1 1 2 3 0 0 0 0 0 0 0 0 0 0 0 0 0 0 0 0 0 0 0 0 0 0 0 0 0 0 0 0 0
3 1 1 1 3 1 1 2 1 1 1 1 1 1 1 2 0 0 0 0 0 0 0 0 0 0 0 0 0 0 0 0 0 0 0 0 0 0 0 0 0 0 0 0 0
4 0 1 1 3 3 1 2 1 1 1 2 0 1 3 0 0 0 0 0 0 0 0 0 0 0 0 0 0 0 0 0 0 0 0 0 0 0 0 0 0 0 0 0 0
3 3 1 1 1 2 1 1 1 1 0 1 1 1 0 0 0 0 0 0 0 0 0 0 0 0 0 0 0 0 0 0 0 0 0 0 0 0 0 0 0 0 0 0 0
0 2 1 0 1 1 1 1 0 0 0 0 0 1 0 0 0 0 0 0 0 0 0 0 0 0 0 0 0 0 0 0 0 0 0 0 0 0 0 0 0 0 0 0 0
0 0 2 2 2 1 1 1 1 1 1 0 0 0 0 0 0 0 0 0 0 0 0 0 0 0 0 0 0 0 0 0 0 0 0 0 0 0 0 0 0 0 0 0 0
0 0 0 1 1 0 0 0 0 0 0 0 1 0 0 0 0 0 0 0 0 0 0 0 0 0 0 0 0 0 0 0 0 0 0 0 0 0 0 0 0 0 0 0 0
0 0 0 0 0 0 0 0 0 0 0 0 0 0 0 0 0 0 0 0 0 0 0 0 0 0 0 0 0 0 0 0 0 0 0 0 0 0 0 0 0 0 0 0 0
0 0 0 0 0 0 0 0 0 0 0 0 0 0 0 0 0 0 0 0 0 0 0 0 0 0 0 0 0 0 0 0 0 0 0 0 0 0 0 0 0 0 0 0 0
0 0 0 0 0 0 0 0 0 0 0 0 0 0 0 0 0 0 0 0 0 0 0 0 0 0 0 0 0 0 0 0 0 0 0 0 0 0 0 0 0 0 0 0 0
0 0 0 0 0 0 0 0 0 0 0 0 0 0 0 0 0 0 0 0 0 0 0 0 0 0 0 0 0 0 0 0 0 0 0 0 0 0 0 0 0 0 0 0 0
0 0 0 0 0 0 0 0 0 0 0 0 0 0 0 0 0 0 0 0 0 0 0 0 0 0 0 0 0 0 0 0 0 0 0 0 0 0 0 0 0 0 0 0 0
0 0 0 0 0 0 0 0 0 0 0 0 0 0 0 0 0 0 0 0 0 0 0 0 0 0 0 0 0 0 0 0 0 0 0 0 0 0 0 0 0 0 0 0 0
0 0 0 0 0 0 0 0 0 0 0 0 0 0 0 0 0 0 0 0 0 0 0 0 0 0 0 0 0 0 0 0 0 0 0 0 0 0 0 0 0 0 0 0 0
0 0 0 0 0 0 0 0 0 0 0 0 0 0 0 0 0 0 0 0 0 0 0 0 0 0 0 0 0 0 0 0 0 0 0 0 0 0 0 0 0 0 0 0 0
0 0 0 0 0 0 0 0 0 0 0 0 0 0 0 0 0 0 0 0 0 0 0 0 0 0 0 0 0 0 0 0 0 0 0 0 0 0 0 0 0 0 0 0 0
0 0 0 0 0 0 0 0 0 0 0 0 0 0 0 0 0 0 0 0 0 0 0 0 0 0 0 0 0 0 3 1 0 0 0 0 0 0 0 0 0 0 0 0 0
0 0 0 0 0 0 0 0 0 0 0 0 0 0 0 0 0 0 0 0 0 0 0 0 0 0 0 0 1 2 0 1 11 0 0 0 0 0 0 0 0 0 0 0 0
0 0 0 0 0 0 0 0 0 0 0 0 0 0 0 0 0 0 0 0 0 0 0 0 0 0 0 0 0 26 2 14 3 14 0 0 0 0 0 0 0 0 0 0 0
0 0 0 0 0 0 0 0 0 0 0 0 0 0 0 0 0 0 0 0 0 0 0 0 0 0 0 0 0 0 9 6 4 5 2 0 0 0 0 0 0 0 0 0 0
0 0 0 0 0 0 0 0 0 0 0 0 0 0 0 0 0 0 0 0 0 0 0 0 0 0 0 0 0 0 4 6 1 0 0 0 0 0 0 0 0 0 0 0 0
0 0 0 0 0 0 0 0 0 0 0 0 0 0 0 0 0 0 0 0 0 0 0 0 0 0 0 0 0 0 0 2 4 0 0 0 0 45 14 0 0 0 0 0 0
0 0 0 0 0 0 0 0 0 0 0 0 0 0 0 0 0 0 0 0 0 0 0 0 0 0 0 0 0 0 0 0 2 10 0 1 0 0 0 0 0 0 0 0 0
0 0 0 0 0 0 0 0 0 0 0 0 0 0 0 0 0 0 0 0 0 3 0 0 0 0 0 0 0 0 0 0 0 0 1 0 0 0 0 0 0 0 0 0 0
0 0 0 0 0 0 0 1 2 2 0 0 0 0 0 0 0 0 0 0 0 0 0 0 0 0 0 0 0 0 0 0 0 0 0 0 0 0 0 0 0 0 0 0 0
0 0 0 0 0 0 0 3 3 3 0 0 0 0 0 0 0 0 0 0 0 0 0 0 0 0 0 0 0 0 0 8 0 2 1 0 0 0 0 0 0 0 0 0 0
CIN
0 0 -1 0 0 0 0 0 0 0 -1 0 0 0 0 0 0 0 0 0 0 0 0 0 0 0 0 0 0 0 0 0 0 0 0 0 0 0 0 0 0 0 0 0 0
0 0 0 0 0 0 0 0 0 0 0 0 0 0 0 0 0 0 0 0 0 0 0 0 0 0 0 0 0 0 0 0 0 0 0 0 0 0 0 0 0 0 0 0 0
0 0 -2 0 0 0 0 0 0 0 0 0 0 0 0 0 0 0 0 0 0 0 0 0 0 0 0 0 0 0 0 0 0 0 0 0 0 0 0 0 0 0 0 0 0
0 0 0 0 0 0 0 0 0 0 0 0 0 0 0 0 0 0 0 0 0 0 0 0 0 0 0 0 0 0 0 0 0 0 0 0 0 0 0 0 0 0 0 0 0
0 0 0 0 0 0 0 0 0 0 0 0 0 0 0 0 0 0 0 0 0 0 0 0 0 0 0 0 0 0 0 0 0 0 0 0 0 0 0 0 0 0 0 0 0
0 0 0 0 0 0 0 0 0 0 0 0 0 0 0 0 0 0 0 0 0 0 0 0 0 0 0 0 0 0 0 0 0 0 0 0 0 0 0 0 0 0 0 0 0
0 0 0 0 0 0 0 0 0 0 0 0 0 0 0 0 0 0 0 0 0 0 0 0 0 0 0 0 0 0 0 0 0 0 0 0 0 0 0 0 0 0 0 0 0
0 0 0 0 0 0 0 0 0 0 0 0 0 0 0 0 0 0 0 0 0 0 0 0 0 0 0 0 0 0 0 0 0 0 0 0 0 0 0 0 0 0 0 0 0
0 0 0 0 0 0 0 0 0 0 0 0 0 0 0 0 0 0 0 0 0 0 0 0 0 0 0 0 0 0 0 0 0 0 0 0 0 0 0 0 0 0 0 0 0
0 0 0 0 0 0 0 0 0 0 0 0 0 0 0 0 0 0 0 0 0 0 0 0 0 0 0 0 0 0 0 0 0 0 0 0 0 0 0 0 0 0 0 0 0
0 0 0 0 0 0 0 0 0 0 0 0 0 0 0 0 0 0 0 0 0 0 0 0 0 0 0 0 0 0 0 0 0 0 0 0 0 0 0 0 0 0 0 0 0
0 0 0 0 0 0 0 0 0 0 0 0 0 0 0 0 0 0 0 0 0 0 0 0 0 0 0 0 0 0 0 0 0 0 0 0 0 0 0 0 0 0 0 0 0
0 0 0 0 0 0 0 0 0 0 0 0 0 0 0 0 0 0 0 0 0 0 0 0 0 0 0 0 0 0 0 0 0 0 0 0 0 0 0 0 0 0 0 0 0
0 0 0 0 0 0 0 0 0 0 0 0 0 0 0 0 0 0 0 0 0 0 0 0 0 0 0 0 0 0 0 0 0 0 0 0 0 0 0 0 0 0 0 0 0
0 0 0 0 0 0 0 0 0 0 0 0 0 0 0 0 0 0 0 0 0 0 0 0 0 0 0 0 0 0 0 0 0 0 0 0 0 0 0 0 0 0 0 0 0
0 0 0 0 0 0 0 0 0 0 0 0 0 0 0 0 0 0 0 0 0 0 0 0 0 0 0 0 0 0 0 0 0 0 0 0 0 0 0 0 0 0 0 0 0
0 0 0 0 0 0 0 0 0 0 0 0 0 0 0 0 0 0 0 0 0 0 0 0 0 0 0 0 0 0 0 0 0 0 0 0 0 0 0 0 0 0 0 0 0
0 0 0 0 0 0 0 0 0 0 0 0 0 0 0 0 0 0 0 0 0 0 0 0 0 0 0 0 0 0 -113 -58 -19 0 0 0 0 0 0 0 0 0 0 0 0
0 0 0 0 0 0 0 0 0 0 0 0 0 0 0 0 0 0 0 0 0 0 0 0 0 0 0 0 -13 -4 0 -45 -31 0 0 0 0 0 0 0 0 0 0 0 0
0 0 0 0 0 0 0 0 0 0 0 0 0 0 0 0 0 0 0 0 0 0 0 0 0 0 0 0 0 -20 -32 -13 -14 -8 -3 0 0 0 0 0 0 0 0 0 0
0 0 0 0 0 0 0 0 0 0 0 0 0 0 0 0 0 0 0 0 0 0 0 0 0 0 0 0 0 -19 -16 -35 -31 -12 -16 0 0 0 0 0 0 0 0 0 0
0 0 0 0 0 0 0 0 0 0 0 0 0 0 0 0 0 0 0 0 0 0 0 0 0 0 0 0 0 0 -19 -16 -36 -15 0 0 0 0 0 0 0 0 0 0 0
0 0 0 0 0 0 0 0 0 0 0 0 0 0 0 0 0 0 0 0 0 0 0 0 0 0 0 0 0 0 0 -17 -25 0 0 0 0 -46 -41 0 0 0 0 0 0
0 0 0 0 0 0 0 0 0 0 0 0 0 0 0 0 0 0 0 0 0 0 0 0 0 0 0 0 0 0 0 0 -3 -4 -2 -3 0 0 0 0 0 0 0 0 0
0 0 0 0 0 0 0 0 0 0 0 0 0 0 0 0 0 0 0 0 0 -11 0 0 0 0 0 0 0 0 0 0 0 0 -2 0 0 0 0 0 0 0 0 0 0
0 0 0 0 0 0 0 0 0 0 0 0 0 0 0 0 0 0 0 0 0 0 0 0 0 0 0 0 0 0 0 0 -1 0 0 -1 -1 0 0 0 0 0 0 0 0
0 0 0 0 0 0 0 0 0 0 0 0 0 0 0 0 0 0 0 0 0 0 0 0 0 0 0 0 0 0 0 -8 0 0 0 0 0 0 0 0 0 0 0 0 0
Wind_Speed
33 30 26 18 14 13 8 5 18 18 20 23 24 25 25 26 28 25 28 22 16 20 20 19 20 19 19 21 21 20 35 40 39 38 39 31 32 28 30 32 27 24 25 18 14
35 32 25 19 12 10 7 1 20 19 19 19 22 23 24 25 26 27 26 21 15 12 15 17 20 18 20 21 22 25 36 39 32 34 41 39 36 33 33 37 35 34 25 15 11
35 35 28 19 11 6 5 2 6 22 20 19 20 21 23 23 22 18 18 15 15 15 17 16 18 18 22 21 22 26 42 32 33 31 35 43 42 36 36 41 37 36 28 18 16
36 35 34 23 13 2 1 4 3 7 23 22 21 21 21 19 17 17 18 9 8 12 15 17 17 20 23 27 25 35 32 33 37 37 39 42 39 41 37 43 36 38 31 24 19
37 35 34 34 22 7 2 3 5 6 8 17 22 22 19 19 20 19 15 10 8 10 12 12 15 19 24 24 25 32 34 35 35 36 36 39 44 42 48 43 41 41 37 25 22
38 36 34 33 31 19 8 4 6 6 7 9 9 15 14 12 17 19 10 10 11 9 11 12 16 20 24 25 25 25 29 33 32 33 33 36 40 36 44 38 41 40 35 28 25
38 37 35 32 30 29 18 9 6 7 7 8 10 11 9 13 15 16 9 13 12 11 13 15 19 20 22 27 25 29 36 36 33 31 32 28 38 41 35 31 33 32 32 26 27
39 37 35 32 30 28 27 6 5 6 8 11 12 11 9 10 15 16 13 19 18 17 20 23 20 22 22 25 29 33 32 38 30 28 29 27 49 42 32 29 33 36 35 35 31
40 38 35 33 30 28 27 22 3 9 13 14 14 13 11 3 10 11 5 4 15 18 21 26 22 21 23 27 30 28 38 39 38 28 31 30 46 36 35 35 39 42 43 41 41
40 39 37 34 31 29 28 28 19 16 14 14 12 15 7 15 8 12 9 16 15 21 20 15 19 21 22 24 32 31 34 35 38 30 32 40 49 41 36 37 45 43 42 41 41
35 41 38 35 32 30 27 20 22 17 13 8 5 5 17 16 18 14 10 9 6 11 5 16 7 7 9 22 28 31 35 40 41 39 36 42 47 43 38 38 45 46 40 39 42
28 37 35 34 34 30 19 18 18 21 7 0 9 8 14 16 16 10 9 8 8 3 9 11 4 3 13 19 22 29 37 43 40 37 32 37 46 43 38 38 40 42 36 35 33
22 36 37 34 34 17 14 13 20 23 18 18 10 10 8 6 8 8 6 6 9 7 4 5 6 12 16 23 27 28 32 37 35 35 33 36 48 46 37 33 35 33 30 30 30
25 26 42 43 21 16 13 18 26 17 20 14 11 11 11 10 15 8 3 7 10 7 5 11 11 8 16 21 25 32 31 33 33 32 43 30 52 47 42 39 36 38 37 36 34
32 31 39 26 19 14 14 25 26 15 15 13 11 13 11 9 16 14 6 5 5 8 11 11 15 20 24 24 26 30 30 33 36 34 35 37 39 51 33 40 42 42 42 42 43
40 39 43 21 15 9 21 25 15 15 12 15 12 10 11 7 14 17 13 12 15 12 16 15 21 22 23 26 28 30 34 33 30 30 39 37 35 54 45 42 41 39 40 45 49
47 39 30 15 17 15 21 16 15 12 18 18 17 17 11 14 16 18 20 10 8 13 17 23 21 24 23 28 28 33 36 38 35 33 38 27 30 39 39 36 40 42 43 48 51
44 37 18 9 13 19 17 15 14 14 18 23 21 23 14 18 16 21 25 24 20 19 23 24 28 26 23 26 29 28 26 28 33 35 43 32 36 28 35 34 38 30 35 38 45
42 25 17 13 10 16 18 15 16 16 25 24 26 18 14 18 22 24 22 17 18 19 19 22 23 23 25 25 26 27 26 28 35 39 34 35 31 42 45 35 29 23 24 29 29
35 23 18 13 12 19 19 15 16 19 26 23 20 15 16 20 20 22 20 16 17 16 18 21 28 24 25 27 26 21 20 24 26 30 31 27 31 30 35 34 28 20 21 22 21
25 22 21 12 16 20 21 18 21 24 24 21 22 18 18 19 19 19 17 20 17 19 20 20 21 24 27 24 23 20 20 20 24 28 29 29 24 24 22 23 27 24 22 22 20
25 22 18 16 18 20 20 24 27 23 24 22 21 19 18 18 21 20 16 19 18 16 19 19 20 24 25 22 17 16 16 16 22 29 28 29 32 21 22 25 27 31 31 31 27
30 18 19 16 20 22 24 27 26 31 28 23 21 21 20 19 21 16 19 20 20 19 17 15 19 25 27 19 20 18 16 16 20 25 33 36 34 23 28 33 33 32 34 33 33
25 25 20 21 19 21 27 26 25 28 21 24 21 19 22 20 18 19 21 19 23 19 15 13 15 17 21 19 20 21 16 12 10 20 33 36 41 38 35 31 31 30 30 30 32
24 23 22 23 21 25 23 25 31 25 23 25 21 23 22 22 22 20 17 20 22 17 14 14 16 14 15 14 17 15 11 9 6 10 12 40 37 32 30 31 31 31 32 32 33
25 24 23 22 21 20 21 22 25 24 25 26 27 31 25 21 19 20 18 17 16 13 14 14 17 15 19 12 15 19 11 7 4 6 9 24 37 27 31 33 34 36 38 39 39
23 21 21 21 21 22 21 20 25 28 23 21 33 35 27 23 17 14 13 14 12 12 13 14 14 17 19 21 28 21 19 19 20 18 19 21 24 29 33 36 39 41 43 46 47
Wind_Direction
347 357 5 15 16 17 23 230 258 256 261 267 268 272 275 277 282 290 275 282 290 273 282 282 281 279 274 271 271 273 262 261 262 262 262 268 268 272 278 273 286 290 287 274 266
334 350 7 14 19 22 26 52 260 255 255 258 265 270 272 281 282 274 269 279 277 294 285 280 278 279 273 273 272 264 262 264 272 269 266 266 268 269 273 269 273 280 295 281 279
330 336 2 17 23 27 34 66 212 266 259 257 259 264 274 285 285 287 301 295 275 280 282 288 283 278 271 274 272 271 262 273 273 277 271 264 266 267 268 264 266 272 282 276 280
334 333 339 11 25 16 92 79 151 194 277 273 270 270 271 303 297 293 301 336 316 294 283 282 277 275 274 270 276 269 274 275 275 275 272 266 268 266 266 263 270 272 282 269 266
339 331 327 329 10 42 202 167 117 154 183 263 295 298 313 305 291 290 319 344 333 310 286 281 280 281 276 279 281 272 275 276 277 277 274 272 264 269 262 266 269 270 274 268 263
337 333 326 324 324 16 57 148 161 123 138 160 159 344 357 239 309 298 339 344 318 310 292 289 291 291 285 282 282 287 284 283 283 281 280 276 272 273 264 269 268 267 268 270 264
334 334 329 324 324 332 25 67 109 165 136 97 81 83 135 178 323 314 332 320 308 309 300 300 300 294 294 287 289 288 282 282 283 284 283 284 272 267 275 272 266 267 269 268 265
333 331 328 326 322 322 319 83 160 135 87 57 55 75 139 90 335 309 309 289 289 288 288 289 303 299 298 296 291 286 287 278 282 285 287 284 266 270 278 275 267 268 269 265 267
334 331 327 325 321 316 308 276 134 47 37 35 33 43 135 218 132 150 354 115 292 292 291 284 299 300 302 295 290 291 279 279 281 289 287 282 272 278 279 275 269 268 266 265 265
331 328 330 324 320 317 305 316 4 9 21 26 20 8 94 26 126 73 108 162 184 290 303 307 301 297 300 296 285 288 286 285 284 289 288 280 273 278 281 279 270 273 268 266 263
320 331 330 324 317 323 335 5 359 8 10 18 49 39 210 351 333 2 68 78 88 342 109 318 331 307 313 298 293 294 290 285 285 286 290 282 277 279 285 284 275 275 270 266 263
311 319 316 312 313 313 360 7 11 347 5 27 190 175 186 326 346 13 27 31 11 75 352 339 289 209 320 314 309 301 291 286 291 293 291 286 279 281 285 284 280 279 271 267 267
309 312 312 305 305 2 10 21 360 344 357 356 30 34 47 32 8 12 54 27 9 13 43 360 335 335 323 314 310 307 303 302 296 296 292 292 282 280 285 285 283 283 278 270 266
303 302 316 328 2 3 2 358 333 4 347 6 21 19 30 14 354 10 83 4 352 7 24 348 354 337 320 316 315 308 312 311 305 295 290 295 283 279 281 282 279 278 278 274 270
300 299 335 358 358 358 2 328 328 6 358 5 19 12 15 20 356 358 6 337 338 335 339 340 340 334 324 319 320 313 315 310 304 298 297 290 286 278 285 280 275 277 277 275 272
304 302 329 3 11 20 338 328 0 356 358 357 9 8 357 359 354 346 341 315 320 306 310 309 322 326 325 321 320 319 315 310 305 298 291 289 286 278 281 282 283 281 280 277 271
314 300 330 16 13 25 349 357 350 347 346 342 345 344 353 344 346 343 341 331 290 317 315 314 316 323 329 322 320 319 315 306 297 291 287 295 290 284 285 287 286 284 284 278 272
311 301 2 40 35 15 11 355 338 345 339 328 332 327 343 337 339 335 329 328 324 314 314 317 316 324 331 325 321 318 314 304 300 291 290 291 285 254 293 288 288 294 299 291 281
313 360 8 16 52 22 2 339 337 339 325 326 321 332 339 339 335 332 337 340 335 335 332 329 325 332 328 324 321 319 304 305 295 293 294 286 294 286 282 291 300 292 309 306 300
354 5 17 21 40 3 354 345 338 339 327 331 331 336 329 332 336 337 339 342 340 338 339 330 325 334 337 333 330 316 320 309 304 296 288 293 290 296 290 297 297 302 306 315 314
9 9 11 30 7 351 335 337 334 328 331 335 330 331 331 331 335 336 337 334 338 337 339 339 335 337 341 341 339 337 325 319 307 291 296 296 292 308 314 311 307 300 299 296 303
12 6 18 13 354 348 334 328 327 332 334 332 329 331 329 333 332 334 338 338 339 342 339 342 341 337 340 343 340 337 340 337 313 295 292 299 285 315 315 309 309 299 293 284 283
360 9 18 13 346 337 332 320 321 314 321 332 327 328 333 332 330 339 336 338 341 343 345 347 344 340 346 0 1 349 347 339 324 307 287 284 288 313 310 301 292 299 289 282 275
9 2 5 8 2 348 330 323 321 314 331 328 331 334 331 329 332 332 332 336 335 340 345 356 346 343 340 344 343 338 340 339 321 311 294 285 283 293 303 303 299 296 302 294 288
10 5 5 351 352 342 336 325 305 318 317 325 330 331 332 326 327 331 340 339 341 350 358 356 342 344 342 341 336 335 335 334 287 254 262 265 288 295 300 303 298 299 296 297 292
4 3 2 350 348 346 342 332 316 318 312 309 314 313 323 325 329 329 332 338 345 357 1 360 347 352 342 350 352 342 334 337 329 237 227 236 280 303 302 304 300 295 294 289 290
9 11 4 357 352 345 341 337 321 319 318 314 304 300 314 322 333 337 338 341 344 345 349 350 358 359 353 357 341 348 1 5 357 360 345 333 318 310 308 303 300 299 295 289 286